Temp
1 1 1 1 1 1 1 1 -0 -1 -1 -1 -1 -0 1 1 2 2 4 3 3 4 4 4 5 4 4 4 4 4 3 4 6 6 8 8 7 7 7 8 8 8 8 8 8
0 0 0 -0 0 0 0 1 -0 -2 -1 -1 -1 -1 -0 1 1 2 2 3 3 3 4 4 4 4 4 4 3 3 3 5 6 6 6 7 6 7 7 7 8 8 8 8 8
-1 -1 -1 -2 -1 -0 -0 -0 -1 -1 -2 -1 -1 -1 -1 -0 1 2 2 3 2 3 3 3 3 3 3 4 2 3 3 4 6 6 6 5 6 6 6 7 7 7 8 8 7
-6 -6 -7 -7 -6 -3 -2 -2 -1 -2 -2 -1 -1 -2 -1 -1 0 2 2 2 2 3 2 3 3 3 3 3 3 3 3 3 5 5 5 4 5 5 5 6 7 7 7 7 7
-8 -8 -7 -7 -8 -6 -4 -2 -3 -2 -2 -2 -2 -2 -1 -1 0 1 1 2 2 2 2 3 3 3 3 3 3 2 3 3 4 4 4 4 4 5 6 5 6 6 7 7 7
-8 -8 -8 -8 -8 -8 -7 -5 -3 -2 -3 -3 -2 -2 -1 -1 -1 -1 1 1 1 2 2 2 2 2 2 2 2 1 2 2 3 3 4 4 4 4 6 6 5 6 6 6 7
-8 -9 -9 -8 -8 -8 -8 -8 -7 -3 -2 -3 -3 -2 -2 -1 -1 -1 0 0 0 0 1 1 1 -0 1 1 1 1 1 1 2 4 4 4 5 5 5 6 6 5 5 6 6
-9 -9 -9 -9 -8 -8 -8 -8 -8 -6 -3 -3 -3 -2 -2 -3 -1 -0 -1 -0 0 0 -0 -0 0 -0 0 -0 0 0 0 1 3 3 3 3 4 6 6 6 5 6 5 5 6
-9 -9 -9 -9 -9 -8 -8 -8 -8 -7 -4 -3 -3 -3 -2 -3 -1 -1 -2 -1 -0 0 0 -0 -1 -1 -0 -0 -0 0 0 1 2 3 3 3 3 5 5 5 5 5 6 6 6
-9 -9 -9 -8 -8 -8 -8 -8 -8 -7 -5 -4 -4 -3 -2 -2 -1 -1 -2 -1 -0 -0 -0 -0 -0 -1 -0 -1 -0 1 1 1 1 3 2 2 2 4 4 4 5 5 6 7 7
-8 -8 -8 -8 -8 -8 -9 -8 -8 -7 -5 -3 -3 -3 -2 -2 -1 -2 -2 -1 -1 -1 -0 -0 -0 -0 -1 1 1 0 1 0 1 1 1 2 2 2 6 5 5 6 7 7 7
-8 -8 -8 -8 -8 -8 -9 -8 -8 -8 -5 -4 -3 -3 -1 -1 -1 -2 -2 -1 -1 -1 -0 -0 -1 -1 -1 -0 -0 -0 0 1 1 1 1 1 3 4 5 6 6 6 6 7 7
-7 -8 -8 -8 -8 -8 -8 -9 -9 -9 -6 -3 -3 -3 -2 -2 -1 -2 -2 -2 -1 -1 -1 -1 -1 -1 -1 -1 -1 -1 -1 -0 0 2 2 2 3 4 6 6 7 7 7 7 7
-7 -7 -8 -8 -8 -9 -8 -8 -8 -7 -5 -4 -3 -3 -3 -2 -2 -2 -2 -2 -2 -2 -2 -1 -2 -1 -1 -0 -0 -1 -1 -0 -0 -0 -0 1 -2 5 6 6 7 7 7 7 7
-7 -8 -8 -8 -8 -8 -8 -8 -8 -6 -5 -4 -3 -3 -3 -3 -2 -3 -3 -2 -2 -2 -2 -2 -1 -1 -1 -1 -2 -1 -1 -1 -1 -1 -2 -0 -1 3 5 6 6 6 6 6 6
-8 -8 -8 -8 -8 -8 -8 -8 -7 -7 -5 -4 -3 -3 -4 -3 -3 -3 -3 -3 -2 -2 -2 -2 -2 -2 -1 -1 -2 -2 -1 -1 -1 -2 -5 0 -1 2 5 5 5 5 5 5 5
-8 -8 -8 -8 -8 -8 -7 -6 -6 -7 -5 -4 -3 -4 -4 -4 -3 -3 -3 -3 -2 -2 -2 -3 -2 -2 -2 -2 -2 -2 -2 -3 -5 -8 -5 -1 -2 2 4 4 4 3 3 3 4
-7 -7 -7 -7 -8 -8 -7 -5 -7 -5 -4 -4 -4 -4 -4 -4 -4 -3 -3 -3 -3 -3 -3 -3 -3 -2 -2 -2 -2 -2 -2 -2 -4 -5 -5 -1 -2 3 4 3 3 3 3 3 3
-7 -7 -7 -7 -8 -8 -6 -6 -6 -4 -4 -4 -4 -4 -4 -4 -4 -3 -4 -3 -3 -2 -2 -2 -2 -3 -3 -3 -2 -3 -3 -3 -3 -4 -6 -2 0 2 3 3 2 3 3 3 2
-7 -6 -6 -7 -6 -6 -6 -6 -5 -4 -3 -4 -4 -4 -4 -4 -4 -4 -4 -4 -3 -3 -2 -3 -3 -3 -3 -3 -4 -3 -3 -4 -4 -10 -6 -3 -2 2 3 3 3 2 2 1 1
-5 -4 -5 -4 -5 -6 -6 -5 -5 -4 -4 -4 -4 -4 -4 -4 -4 -4 -4 -4 -4 -3 -2 -3 -2 -4 -4 -3 -3 -4 -4 -4 -3 -4 -8 -6 -1 2 1 1 1 1 0 -1 -1
-3 -3 -3 -4 -5 -5 -4 -4 -4 -4 -3 -3 -3 -3 -4 -4 -4 -4 -4 -3 -3 -3 -3 -3 -3 -3 -3 -3 -3 -4 -3 -3 -3 -4 -4 -5 -3 1 2 1 0 -0 -1 -1 -2
-2 -3 -3 -3 -3 -4 -4 -4 -4 -4 -3 -3 -3 -3 -3 -3 -4 -4 -3 -3 -3 -4 -4 -4 -4 -4 -4 -3 -4 -4 -3 -4 -4 -4 -5 -4 -2 1 1 -0 -1 -2 -2 -3 -3
-1 -3 -3 -2 -3 -2 -3 -3 -4 -3 -3 -3 -4 -3 -3 -3 -3 -4 -4 -4 -4 -4 -4 -3 -3 -3 -4 -3 -3 -3 -3 -3 -4 -4 -4 -3 -2 3 -0 -2 -2 -2 -2 -3 -4
-1 -2 -2 -2 -3 -3 -3 -3 -4 -4 -4 -3 -3 -3 -3 -3 -3 -3 -4 -4 -4 -4 -4 -4 -4 -3 -3 -3 -3 -3 -3 -3 -4 -3 -4 -0 -3 0 -2 -2 -1 -2 -2 -3 -4
-1 -2 -2 -2 -2 -3 -3 -3 -3 -3 -3 -3 -3 -3 -3 -3 -3 -3 -3 -3 -4 -4 -4 -4 -4 -4 -2 -3 -2 -2 -2 -2 -2 -2 -3 -3 -2 -2 -1 -1 -1 -2 -2 -3 -3
-2 -1 -2 -2 -2 -3 -2 -3 -3 -3 -3 -3 -3 -3 -3 -3 -3 -3 -3 -3 -3 -3 -3 -4 -4 -3 -3 -2 -2 -2 -0 -1 -1 -1 -2 -1 -1 -1 -1 -1 -1 -1 -2 -3 -3
Height
3062 3058 3056 3053 3051 3049 3048 3047 3048 3050 3053 3055 3055 3057 3059 3060 3062 3063 3066 3076 3076 3080 3083 3088 3092 3098 3101 3105 3109 3112 3112 3111 3114 3119 3121 3128 3129 3131 3132 3132 3134 3134 3135 3138 3141
3054 3049 3045 3042 3040 3039 3038 3038 3039 3042 3045 3048 3050 3051 3053 3055 3056 3057 3066 3066 3070 3075 3078 3083 3089 3092 3095 3101 3104 3105 3104 3107 3111 3116 3118 3122 3124 3126 3129 3130 3132 3132 3132 3133 3136
3043 3038 3033 3029 3026 3027 3028 3029 3031 3032 3036 3041 3045 3045 3048 3050 3051 3056 3056 3061 3065 3070 3075 3079 3082 3085 3089 3095 3097 3099 3098 3104 3107 3113 3114 3115 3118 3120 3123 3126 3129 3129 3130 3129 3131
3029 3025 3022 3019 3016 3016 3016 3018 3020 3024 3028 3034 3038 3040 3042 3045 3049 3049 3052 3056 3061 3065 3069 3073 3076 3079 3084 3087 3094 3095 3096 3101 3105 3110 3110 3110 3112 3114 3117 3122 3125 3125 3124 3124 3125
3021 3018 3014 3011 3008 3007 3006 3009 3011 3015 3020 3027 3032 3034 3035 3038 3044 3045 3048 3052 3056 3060 3065 3069 3072 3076 3081 3084 3090 3089 3094 3098 3102 3105 3104 3105 3105 3109 3109 3115 3119 3120 3120 3122 3121
3012 3007 3004 3003 3000 2998 2997 2996 3000 3007 3013 3020 3026 3024 3029 3033 3041 3043 3047 3049 3053 3057 3061 3065 3070 3075 3080 3082 3084 3087 3092 3094 3097 3099 3099 3100 3100 3101 3103 3110 3112 3113 3114 3116 3117
3004 2999 2996 2994 2993 2990 2989 2988 2989 2996 3004 3013 3018 3016 3022 3032 3034 3040 3045 3048 3051 3056 3060 3064 3068 3072 3076 3080 3081 3085 3088 3090 3092 3095 3095 3098 3093 3089 3100 3106 3105 3106 3108 3110 3111
2998 2994 2991 2988 2986 2984 2983 2983 2984 2987 2996 3007 3013 3013 3016 3027 3031 3035 3041 3045 3049 3054 3058 3063 3066 3070 3074 3078 3080 3083 3086 3087 3089 3091 3092 3093 3078 3088 3095 3095 3095 3097 3098 3100 3104
2994 2990 2986 2983 2982 2979 2977 2978 2979 2981 2988 3000 3006 3008 3015 3019 3025 3032 3038 3044 3047 3052 3056 3060 3064 3067 3072 3075 3079 3080 3081 3084 3085 3086 3086 3084 3078 3085 3087 3086 3085 3087 3088 3090 3092
2991 2986 2983 2981 2978 2975 2973 2973 2974 2976 2983 2994 3002 3005 3008 3015 3023 3029 3036 3041 3046 3049 3053 3057 3061 3064 3067 3071 3073 3076 3078 3080 3081 3083 3080 3078 3076 3079 3080 3079 3078 3079 3080 3082 3085
2987 2983 2981 2978 2975 2971 2970 2970 2973 2976 2978 2988 2990 2999 3004 3013 3020 3026 3033 3039 3043 3047 3050 3054 3054 3057 3064 3069 3073 3075 3076 3076 3078 3079 3076 3074 3070 3070 3072 3070 3071 3073 3074 3075 3077
2983 2980 2978 2975 2971 2968 2966 2966 2968 2971 2977 2985 2991 2998 3004 3010 3016 3024 3031 3037 3040 3045 3047 3052 3053 3056 3062 3067 3070 3072 3073 3074 3075 3075 3074 3069 3063 3064 3065 3063 3065 3066 3067 3068 3069
2982 2978 2975 2971 2969 2965 2963 2964 2965 2969 2978 2985 2989 2995 3004 3011 3016 3020 3028 3033 3039 3044 3046 3048 3053 3056 3059 3063 3068 3070 3071 3072 3073 3071 3069 3065 3055 3056 3058 3057 3056 3057 3060 3060 3061
2980 2976 2972 2968 2966 2963 2962 2962 2965 2972 2981 2983 2988 2995 3003 3009 3017 3023 3029 3035 3037 3041 3046 3050 3052 3055 3058 3062 3066 3067 3069 3070 3070 3070 3067 3066 3053 3047 3052 3051 3052 3054 3054 3055 3056
2976 2972 2967 2961 2959 2960 2964 2963 2965 2974 2977 2985 2990 2995 3001 3009 3015 3022 3028 3033 3036 3039 3046 3050 3050 3054 3058 3061 3063 3065 3067 3068 3068 3067 3064 3061 3061 3042 3044 3046 3046 3047 3049 3051 3052
2972 2967 2963 2960 2959 2961 2964 2965 2971 2978 2973 2981 2985 2993 3002 3010 3016 3021 3027 3033 3038 3042 3045 3048 3050 3054 3057 3059 3061 3063 3065 3066 3066 3066 3063 3054 3056 3043 3042 3042 3043 3046 3046 3047 3047
2970 2966 2962 2960 2961 2964 2966 2971 2976 2973 2976 2983 2987 2997 3004 3009 3016 3021 3026 3031 3035 3039 3043 3047 3050 3052 3055 3057 3060 3063 3063 3065 3068 3068 3060 3053 3052 3039 3041 3041 3042 3041 3041 3041 3041
2972 2971 2968 2966 2967 2968 2973 2977 2975 2976 2977 2984 2992 3000 3006 3013 3019 3023 3028 3032 3036 3037 3041 3046 3052 3051 3053 3055 3058 3059 3061 3063 3066 3064 3057 3052 3043 3037 3038 3039 3039 3037 3037 3037 3036
2977 2975 2974 2972 2973 2974 2978 2978 2979 2981 2982 2987 2998 3004 3010 3015 3019 3024 3028 3032 3035 3038 3043 3044 3048 3049 3052 3052 3056 3057 3058 3061 3063 3061 3059 3046 3038 3037 3034 3034 3034 3034 3033 3032 3031
2985 2983 2981 2981 2983 2985 2984 2982 2983 2985 2991 2997 3000 3006 3010 3016 3020 3024 3029 3033 3036 3039 3041 3043 3047 3048 3049 3049 3053 3055 3057 3060 3061 3066 3057 3041 3037 3033 3033 3033 3031 3030 3029 3027 3026
2992 2989 2990 2991 2992 2990 2988 2990 2992 2996 2999 3003 3005 3007 3013 3017 3021 3025 3030 3031 3034 3038 3039 3041 3041 3046 3047 3047 3049 3052 3054 3056 3057 3058 3056 3050 3034 3031 3031 3030 3028 3026 3024 3021 3018
2998 2995 2999 2998 2999 2994 2995 2996 2999 3002 3003 3005 3008 3011 3015 3019 3022 3025 3027 3030 3030 3035 3037 3039 3040 3043 3045 3047 3048 3050 3051 3053 3055 3053 3052 3053 3030 3027 3027 3026 3024 3022 3015 3007 3001
3004 3002 3002 3001 3001 2999 3000 3001 3002 3005 3006 3007 3008 3011 3015 3019 3023 3026 3027 3029 3030 3032 3035 3038 3040 3042 3045 3046 3045 3045 3046 3048 3052 3052 3048 3051 3024 3021 3023 3022 3016 3008 3003 2996 2990
3010 3007 3006 3005 3005 3005 3005 3006 3007 3009 3007 3007 3008 3012 3017 3020 3021 3023 3027 3029 3031 3033 3036 3039 3039 3039 3039 3039 3040 3041 3042 3045 3048 3045 3040 3029 3019 3013 3017 3012 3006 3000 2993 2987 2982
3013 3012 3009 3010 3009 3010 3009 3012 3012 3012 3012 3012 3014 3017 3019 3020 3022 3024 3027 3028 3031 3034 3036 3038 3037 3037 3038 3039 3039 3039 3040 3041 3039 3035 3035 3019 3023 3015 3013 3006 2999 2993 2986 2981 2976
3015 3014 3014 3012 3013 3013 3014 3015 3015 3015 3016 3017 3018 3019 3021 3022 3023 3023 3025 3027 3030 3033 3034 3036 3037 3036 3034 3034 3033 3032 3032 3033 3032 3031 3026 3022 3014 3014 3009 3004 2997 2989 2982 2975 2971
3017 3015 3015 3015 3015 3016 3016 3017 3017 3018 3019 3019 3020 3021 3022 3024 3024 3025 3027 3028 3030 3030 3032 3035 3036 3036 3032 3032 3030 3027 3026 3027 3027 3025 3023 3019 3015 3011 3005 3000 2994 2986 2979 2972 2967
Wind_Speed
31 32 30 31 31 30 30 31 31 31 26 23 22 23 25 25 25 28 28 20 26 25 24 27 30 29 31 31 29 29 33 36 36 32 30 18 23 20 11 11 24 26 24 21 16
34 36 36 34 34 34 33 33 32 32 33 20 23 22 24 25 25 30 19 25 26 26 25 24 25 29 33 33 32 35 39 40 36 33 28 21 23 25 18 15 24 25 22 24 23
41 39 40 37 38 37 36 33 34 35 32 28 24 23 23 24 26 21 25 25 24 24 23 24 26 30 33 31 35 37 41 42 31 32 22 28 25 26 17 21 24 24 24 26 24
37 32 27 26 27 33 36 34 32 36 35 33 20 24 23 23 17 22 23 21 22 23 24 26 29 31 32 34 33 35 38 36 31 29 26 26 28 32 26 23 26 28 28 26 26
32 32 31 30 31 26 30 35 31 33 36 36 22 26 26 26 22 13 17 21 22 23 23 26 29 28 30 32 29 36 34 32 30 29 28 33 33 34 36 27 27 32 35 34 37
32 31 32 31 32 30 25 32 34 30 34 34 25 27 29 29 17 20 13 20 19 20 22 25 25 23 24 22 29 23 28 25 28 27 31 35 39 39 41 35 31 33 35 36 39
31 32 29 23 22 23 23 26 28 30 33 35 35 24 31 20 22 24 18 18 20 20 20 18 21 25 20 18 18 24 17 19 25 26 33 30 42 47 39 35 42 37 38 38 39
30 28 23 20 19 21 23 21 20 22 32 37 32 27 35 23 24 24 23 20 17 22 19 19 21 26 21 14 16 21 19 23 23 18 21 22 46 41 34 37 39 40 47 48 43
25 22 20 19 18 19 21 18 16 14 33 40 31 28 21 26 28 21 25 20 18 21 22 22 23 21 23 22 12 18 19 18 16 16 20 25 35 26 21 29 34 31 36 44 46
21 19 17 16 16 16 16 11 11 15 34 39 32 26 25 29 23 25 25 21 17 22 25 25 26 23 23 25 18 16 21 20 17 14 15 23 30 26 23 26 27 30 34 36 38
16 16 14 17 20 19 16 7 8 14 39 33 20 22 14 19 25 27 24 23 21 18 23 29 24 31 33 24 13 12 11 8 14 14 21 24 30 32 28 31 29 29 27 28 28
12 8 13 17 23 23 9 8 7 16 39 17 23 24 9 19 30 27 27 24 28 23 22 21 23 21 16 20 13 16 18 17 19 20 22 29 36 34 31 31 30 28 31 31 32
12 11 15 21 24 13 3 6 10 19 22 18 25 32 18 20 28 33 31 26 26 24 22 13 10 17 16 15 13 11 13 16 20 23 27 32 43 38 30 28 27 26 20 24 31
17 19 20 23 26 13 3 6 13 21 16 18 24 28 27 23 23 28 27 25 24 24 21 16 12 11 19 18 17 16 15 17 19 19 11 13 12 34 26 24 22 18 21 21 20
21 24 25 23 14 6 5 2 20 26 4 27 26 27 28 24 29 30 28 25 23 23 19 13 16 17 11 19 17 14 14 12 14 16 22 25 13 13 19 21 16 18 17 14 14
25 21 17 11 4 6 10 7 17 4 3 16 22 26 29 15 32 33 26 22 19 17 20 13 10 14 12 10 16 14 13 11 15 14 5 12 14 5 2 1 2 11 11 12 16
16 16 16 9 13 16 17 17 7 1 14 22 30 34 27 26 27 32 26 24 16 18 17 14 12 13 11 14 13 16 10 2 3 1 7 6 10 17 7 5 11 11 15 17 17
13 15 16 19 16 15 17 12 3 5 3 21 36 33 26 22 29 28 25 26 16 14 20 12 6 13 11 14 10 16 13 5 5 2 5 6 9 1 3 3 15 18 16 16 19
14 14 14 10 16 13 9 6 7 7 22 33 35 28 24 18 24 27 25 23 18 19 9 14 7 7 9 11 15 12 11 11 4 6 4 8 10 15 16 13 8 11 14 15 17
16 14 16 16 16 8 6 9 11 19 31 35 17 17 18 17 23 21 24 21 20 18 10 11 7 4 6 10 14 9 8 7 6 1 4 8 10 16 9 15 19 15 17 25 27
19 28 25 21 10 8 11 22 25 30 23 12 6 17 20 20 16 19 18 6 25 22 11 14 5 8 9 9 18 19 12 7 4 5 3 4 9 8 10 15 22 27 28 26 26
22 24 18 9 8 16 22 25 22 17 11 12 4 13 21 19 13 18 18 1 12 20 19 11 6 5 11 4 5 17 18 17 6 3 6 4 18 13 7 9 16 38 49 46 45
21 22 17 16 20 23 30 27 22 12 10 12 8 13 18 18 13 9 8 5 13 13 24 16 5 4 3 11 19 16 18 23 21 20 17 5 13 10 24 40 39 39 41 39 33
16 19 19 16 20 21 22 22 21 16 13 10 11 14 23 9 8 15 14 10 15 13 20 9 10 6 4 1 4 13 15 17 22 19 22 34 45 37 37 38 35 36 37 32 27
14 15 17 20 20 17 20 18 19 18 19 22 24 21 14 10 11 15 13 15 16 16 15 14 7 12 15 15 17 18 18 20 26 33 31 42 41 35 34 32 35 35 33 36 26
13 15 17 19 17 13 12 12 13 16 15 14 14 11 13 14 9 16 13 16 12 18 18 16 7 8 12 7 11 14 14 16 20 25 35 37 38 24 23 27 33 30 29 30 23
7 10 7 10 11 11 11 8 9 10 9 10 11 8 13 7 9 7 5 8 4 9 20 15 6 6 4 4 14 12 6 4 8 11 14 18 20 21 26 29 29 32 24 21 18
Wind_Direction
294 288 283 276 273 266 257 251 240 235 237 258 255 249 243 243 241 237 235 236 232 224 224 221 217 214 217 216 215 216 219 227 232 235 241 231 231 229 251 232 221 235 243 255 242
293 285 280 275 266 266 259 252 245 234 230 234 252 249 243 241 241 240 230 224 228 224 216 217 217 212 216 216 218 219 224 231 233 236 242 237 236 237 238 223 225 230 239 247 226
295 288 281 274 267 259 260 254 248 234 228 226 245 242 243 240 241 238 231 222 223 222 212 208 206 207 213 213 216 221 229 233 237 235 238 235 225 232 240 231 228 234 245 241 232
298 292 293 296 288 278 260 258 245 238 226 219 227 236 237 236 235 234 229 220 214 214 209 206 206 207 206 213 214 222 231 235 240 240 234 236 230 230 230 229 231 228 226 230 234
300 298 288 282 284 278 267 260 255 236 232 214 214 236 233 232 220 229 219 212 204 207 207 209 209 206 210 213 214 225 229 237 238 233 230 232 238 231 228 221 227 237 237 239 240
300 297 291 293 288 290 283 254 249 240 228 208 211 218 227 229 212 220 204 198 193 194 198 201 208 208 212 212 217 230 236 238 236 234 232 232 236 240 229 221 224 230 235 238 249
306 303 308 304 295 288 285 277 263 228 221 206 216 233 226 209 207 208 194 179 185 192 191 188 197 202 208 201 213 211 219 236 237 238 241 241 244 242 246 235 232 232 237 239 244
319 320 315 306 298 288 281 280 280 245 208 204 204 219 226 208 208 201 202 196 186 194 185 182 192 207 207 189 204 211 230 235 243 245 249 242 253 249 253 253 249 241 236 244 235
329 326 318 314 306 292 284 283 275 243 197 198 203 207 206 202 203 190 193 194 190 186 191 191 192 194 197 197 188 212 231 245 265 249 250 238 258 265 253 248 249 242 239 240 244
336 337 338 333 325 308 299 272 270 209 192 194 209 197 215 211 194 190 187 194 185 181 183 190 195 200 200 197 208 219 229 243 253 234 242 251 260 260 254 255 253 247 242 242 244
334 336 350 342 336 304 296 267 257 205 184 184 199 183 203 189 188 185 183 190 183 184 187 202 209 201 213 203 199 225 215 236 230 245 259 248 248 251 256 255 256 258 254 250 248
321 339 339 337 340 324 298 249 209 178 189 175 190 172 149 181 180 179 187 190 190 186 184 195 211 206 193 195 221 235 227 239 248 255 266 262 259 263 269 273 274 264 258 256 253
316 319 328 326 329 333 284 233 197 169 187 160 163 176 174 172 181 177 183 188 191 193 194 193 205 182 176 180 199 224 243 252 263 263 271 276 275 276 276 272 270 267 260 257 255
317 315 313 312 316 316 271 185 184 153 159 193 153 175 175 172 171 179 179 187 190 196 210 217 190 180 193 202 215 230 244 258 267 282 288 288 291 278 283 274 268 268 266 262 259
315 318 316 311 314 316 156 166 178 153 149 165 172 162 170 161 171 173 177 190 191 181 185 196 212 220 201 218 219 235 242 258 269 281 289 284 258 292 294 288 270 252 268 274 277
327 332 339 341 348 123 126 147 146 185 140 149 148 151 154 158 162 165 175 184 176 188 192 187 192 201 215 216 211 228 241 262 280 283 282 277 229 294 278 50 76 317 309 298 283
354 4 18 70 112 118 108 137 155 22 124 133 146 148 155 151 160 169 171 177 177 172 193 176 179 195 212 222 212 224 228 335 337 318 232 292 259 251 185 276 312 284 285 281 269
26 53 69 101 112 113 119 121 22 45 99 147 142 149 146 156 162 178 175 176 170 169 172 170 180 210 225 216 213 222 221 191 231 236 285 297 247 288 187 216 282 280 283 284 274
49 59 64 112 112 104 87 73 5 84 123 137 146 143 140 157 170 182 180 187 188 193 181 181 176 182 214 221 218 207 206 227 259 274 299 252 273 286 280 280 272 285 284 278 271
41 58 65 90 72 91 79 31 73 115 139 144 133 152 149 161 168 177 184 198 189 177 167 158 143 167 196 193 201 204 198 193 207 299 267 279 275 250 259 283 280 272 279 291 284
62 73 74 76 89 70 37 81 98 127 130 132 120 152 167 158 178 178 183 191 202 185 168 166 170 170 200 215 209 204 204 203 210 233 192 310 273 238 275 286 283 297 307 290 277
79 83 91 69 33 45 92 94 104 106 130 148 111 175 174 173 172 190 197 145 185 192 195 175 187 186 220 219 212 234 236 230 210 215 236 288 271 293 295 299 305 302 299 296 291
82 79 75 74 64 85 79 85 88 97 132 150 165 178 174 163 150 162 173 199 174 195 183 182 201 165 184 230 227 233 230 236 246 257 253 244 262 301 308 310 313 313 308 313 306
82 77 81 89 85 98 93 96 101 96 92 142 159 159 149 149 167 176 166 155 167 177 188 202 227 224 187 214 196 216 237 231 230 242 251 248 282 317 324 320 317 317 311 322 316
88 92 94 97 101 97 95 103 110 104 103 101 113 123 140 142 144 161 170 169 177 169 187 214 246 252 259 258 248 245 243 245 240 254 249 287 286 309 321 329 330 323 321 320 312
110 111 111 111 108 96 97 102 104 117 128 124 130 131 138 147 164 173 191 183 172 192 195 208 246 288 291 243 251 266 259 256 255 259 263 280 292 333 330 337 334 330 327 318 310
148 143 139 144 130 124 126 106 107 115 142 147 147 142 158 140 145 160 167 170 195 213 214 217 255 289 279 242 300 282 181 248 281 300 294 292 329 336 334 336 346 354 335 347 346